Snowfall_Accumulation
0.0 0.0 0.0 0.0 0.0 0.0 0.0 0.0 0.0 0.0 0.0 0.0 0.0 0.0 0.0 0.0 0.0 0.0 0.0 0.0 0.0 0.0 0.0 0.0 0.0 0.0 0.0 0.0 0.0 0.0 0.0 0.0 0.0 0.0 0.0 0.0 0.0 0.0 0.0 0.0 0.0 0.0 0.0 0.0
0.0 0.0 0.0 0.0 0.0 0.0 0.0 0.0 0.0 0.0 0.0 0.0 0.0 0.0 0.0 0.0 0.0 0.0 0.0 0.0 0.0 0.0 0.0 0.0 0.0 0.0 0.0 0.0 0.0 0.0 0.0 0.0 0.0 0.0 0.0 0.0 0.0 0.0 0.0 0.0 0.0 0.0 0.0 0.0
0.0 0.0 0.0 0.0 0.0 0.0 0.0 0.0 0.0 0.0 0.0 0.0 0.0 0.0 0.0 0.0 0.0 0.0 0.0 0.0 0.0 0.0 0.0 0.0 0.0 0.0 0.0 0.0 0.0 0.0 0.0 0.0 0.0 0.0 0.0 0.0 0.0 0.0 0.0 0.0 0.0 0.0 0.0 0.0
0.0 0.0 0.0 0.0 0.0 0.0 0.0 0.0 0.0 0.0 0.0 0.0 0.0 0.0 0.0 0.0 0.0 0.0 0.0 0.0 0.0 0.0 0.0 0.0 0.0 0.0 0.0 0.0 0.0 0.0 0.0 0.0 0.0 0.0 0.0 0.0 0.0 0.0 0.0 0.0 0.0 0.0 0.0 0.0
0.2 0.0 0.0 0.0 0.0 0.0 0.0 0.0 0.0 0.0 0.0 0.1 0.0 0.0 0.0 0.0 0.0 0.0 0.0 0.0 0.0 0.0 0.0 0.0 0.0 0.0 0.0 0.0 0.0 0.0 0.0 0.0 0.0 0.0 0.0 0.0 0.0 0.0 0.0 0.0 0.0 0.0 0.0 0.0
0.0 0.0 0.0 0.0 0.0 0.0 0.0 0.0 0.0 0.0 0.0 1.7 0.0 0.0 0.0 0.0 0.0 0.0 0.0 0.0 0.0 0.0 0.0 0.0 0.0 0.0 0.0 0.0 0.0 0.0 0.0 0.0 0.0 0.0 0.0 0.0 0.0 0.0 0.0 0.0 0.0 0.0 0.0 0.0
0.0 0.0 0.0 0.0 0.0 0.0 0.0 0.0 5.2 6.4 9.0 1.5 0.0 0.0 0.0 0.0 0.0 0.0 0.0 0.0 0.0 0.0 0.0 0.0 0.0 0.0 0.0 0.0 0.0 0.0 0.0 0.0 0.0 0.0 0.0 0.0 0.0 0.0 0.0 0.0 0.0 0.0 0.0 0.0
1.3 4.6 0.0 0.0 0.0 0.0 0.0 0.0 1.5 1.4 1.1 0.1 0.0 0.1 0.0 0.0 0.0 0.0 0.0 0.0 0.0 0.0 0.0 0.0 0.0 0.0 0.0 0.0 0.0 0.0 0.0 0.0 0.0 0.0 0.0 0.0 0.0 0.0 0.0 0.0 0.0 0.0 0.0 0.0
1.0 0.3 0.0 0.0 0.0 0.0 0.1 0.6 0.0 0.6 1.9 1.2 0.7 0.0 0.0 0.0 0.0 0.0 0.0 0.0 0.0 0.0 0.0 0.0 0.0 0.0 0.0 0.0 0.0 0.0 0.0 0.0 0.0 0.0 0.0 0.0 0.0 0.0 0.0 0.0 0.0 0.0 0.0 0.0
0.0 0.9 0.0 0.0 0.0 0.0 0.0 0.0 2.9 2.5 7.5 3.5 0.2 0.0 0.0 0.0 0.0 0.0 0.0 0.0 0.0 0.0 0.0 0.0 0.0 0.0 0.0 0.0 0.0 0.0 0.0 0.0 0.0 0.0 0.0 0.0 0.0 0.0 0.0 0.0 0.0 0.0 0.0 0.0
0.0 0.1 0.4 0.0 0.0 0.0 0.0 0.0 0.0 0.8 2.8 2.3 1.3 0.2 0.0 0.0 0.0 0.0 0.0 0.0 0.0 0.0 0.0 0.0 0.0 0.0 0.0 0.0 0.0 0.0 0.0 0.0 0.0 0.0 0.0 0.0 0.0 0.0 0.0 0.0 0.0 0.0 0.0 0.0
0.0 0.0 1.7 0.4 0.0 0.0 0.0 0.0 0.0 1.5 0.8 1.2 2.0 1.2 0.0 0.0 0.0 0.0 0.0 0.0 0.0 0.0 0.0 0.0 0.0 0.0 0.0 0.0 0.0 0.0 0.0 0.0 0.0 0.0 0.0 0.0 0.0 0.0 0.0 0.0 0.0 0.0 0.0 0.0
0.0 1.5 6.9 4.8 2.3 0.0 0.0 0.0 0.0 0.0 0.2 0.5 2.8 0.3 0.0 0.0 0.0 0.0 0.0 0.0 0.0 0.0 0.0 0.0 0.0 0.0 0.0 0.0 0.0 0.0 0.0 0.0 0.0 0.0 0.0 0.0 0.0 0.0 0.0 0.0 0.0 0.0 0.0 0.0
nan 0.2 0.5 0.4 0.3 0.0 0.1 0.0 0.0 0.0 5.5 0.2 0.1 0.0 0.0 0.0 0.0 0.0 0.0 0.0 0.0 0.0 0.0 0.0 0.0 0.0 0.0 0.0 0.0 0.0 0.0 0.0 0.0 0.0 0.0 0.0 0.0 0.0 0.0 0.0 0.0 0.0 0.0 0.0
0.0 2.7 0.1 0.1 0.0 0.0 0.0 0.0 0.0 0.2 0.1 0.6 0.0 0.0 0.0 0.0 0.0 0.0 0.0 0.0 0.0 0.0 0.0 0.0 0.0 0.0 0.0 0.0 0.0 0.0 0.0 0.0 0.0 0.0 0.0 0.0 0.0 0.0 0.0 0.0 0.0 0.0 0.0 0.0
0.0 3.1 0.2 2.6 0.1 0.1 0.2 0.0 0.0 0.0 0.0 0.0 0.0 0.0 0.0 0.0 0.0 0.0 0.0 0.0 0.0 0.0 0.0 0.0 0.0 0.0 0.0 0.0 0.0 0.0 0.0 0.0 0.0 0.0 0.0 0.0 0.0 0.0 0.0 0.0 0.0 0.0 0.0 0.0
0.1 2.1 9.7 16.6 0.2 0.4 14.0 0.5 0.0 0.0 0.0 0.0 0.0 0.0 0.0 0.0 0.0 0.0 0.0 0.1 0.2 0.1 0.0 0.0 0.0 0.0 0.0 0.0 0.0 0.0 0.0 0.0 0.0 0.0 0.0 0.0 0.0 0.1 0.0 0.0 0.1 0.1 0.0 0.0
0.2 0.8 2.7 16.7 7.5 46.8 2.0 0.0 0.0 0.0 0.0 0.0 0.0 0.0 0.0 0.0 0.0 0.0 0.0 0.0 0.0 0.0 0.0 0.0 0.0 0.0 0.0 0.0 0.0 0.0 0.1 0.1 0.1 0.0 0.1 0.1 0.1 0.1 0.1 0.1 0.1 0.1 0.1 0.1
0.0 0.2 14.9 30.8 17.4 0.5 0.0 0.0 0.0 0.0 0.0 0.0 0.0 0.0 0.0 0.0 0.0 0.0 0.0 0.0 0.0 0.0 0.0 0.0 0.0 0.0 0.0 0.3 0.3 0.3 0.3 0.2 0.1 0.1 0.1 0.1 0.1 0.2 0.1 0.3 0.1 0.1 0.1 0.2
0.0 0.0 0.9 25.5 26.0 23.7 0.0 0.0 0.0 0.0 0.5 0.0 0.0 0.0 0.0 0.0 0.0 0.0 0.0 0.0 0.0 0.0 0.1 0.3 0.6 0.6 0.6 0.4 0.3 0.3 0.3 0.1 0.1 0.1 0.1 0.1 0.1 0.4 0.2 0.1 0.3 0.4 0.4 0.6
7.0 10.6 24.5 20.9 20.1 6.0 0.1 0.0 0.0 3.4 0.1 0.1 0.0 0.0 0.0 0.0 0.0 0.1 0.0 0.0 0.0 0.2 0.5 0.9 1.4 1.5 1.2 0.8 0.6 0.4 0.1 0.1 0.1 0.2 0.2 0.4 0.3 0.6 0.2 0.4 0.5 1.0 1.4 1.0
4.2 11.3 22.3 15.3 21.4 27.9 0.0 0.0 0.0 0.1 0.1 0.1 0.0 0.0 0.0 0.0 0.0 0.0 0.0 0.0 0.2 0.5 0.6 0.6 0.5 0.0 0.0 0.1 0.1 0.2 0.1 0.2 0.6 0.8 0.9 1.1 1.3 0.9 0.8 2.1 1.7 2.5 2.2 2.5
6.4 1.1 4.3 0.7 3.0 0.0 0.0 0.1 0.0 0.0 0.1 0.1 0.0 0.0 0.0 0.0 0.0 0.0 0.0 0.0 0.1 0.3 0.5 0.2 0.2 0.5 0.2 0.7 0.3 0.6 0.5 0.7 1.5 2.7 3.9 3.6 3.0 2.5 2.2 3.2 2.8 4.3 3.1 4.6
0.9 1.1 3.7 3.8 1.8 0.2 0.1 0.0 0.0 0.0 0.0 0.0 0.0 0.0 0.0 0.0 0.0 0.0 0.0 0.0 0.1 0.4 0.5 0.7 1.1 1.6 1.6 1.3 1.6 1.7 1.7 2.0 5.9 5.7 3.3 2.7 3.5 2.6 3.0 3.5 3.8 5.7 5.3 4.5
2.6 3.0 4.6 3.3 1.9 1.6 0.7 0.1 0.0 0.0 0.0 0.0 0.0 0.0 0.0 0.0 0.0 0.0 0.2 0.3 0.2 0.4 0.7 1.0 1.8 1.8 1.8 1.4 1.7 2.7 2.4 2.7 3.8 4.6 3.3 3.7 4.5 4.9 4.0 3.5 4.6 5.0 3.0 5.9
4.5 5.0 4.5 3.8 3.1 2.2 0.4 1.4 0.5 0.5 0.2 0.1 0.1 0.4 0.5 0.3 0.1 0.2 0.4 0.3 0.4 0.9 1.2 1.8 2.2 2.1 2.6 3.2 3.6 4.7 5.5 4.5 5.2 3.8 5.3 4.4 4.7 4.3 4.0 5.0 5.2 nan nan nan
Water_Equivalent
0.00 0.00 0.00 0.00 0.00 0.00 0.00 0.00 0.00 0.00 0.00 0.00 0.00 0.00 0.00 0.00 0.00 0.00 0.00 0.00 0.00 0.00 0.00 0.00 0.00 0.00 0.00 0.00 0.00 0.00 0.00 0.00 0.00 0.00 0.00 0.00 0.00 0.00 0.00 0.00 0.00 0.00 0.00 0.00
0.00 0.00 0.00 0.00 0.00 0.00 0.00 0.00 0.00 0.00 0.00 0.00 0.00 0.00 0.00 0.00 0.00 0.00 0.00 0.00 0.00 0.00 0.00 0.00 0.00 0.00 0.00 0.00 0.00 0.00 0.00 0.00 0.00 0.00 0.00 0.00 0.00 0.00 0.00 0.00 0.00 0.00 0.00 0.00
0.00 0.00 0.00 0.00 0.00 0.00 0.00 0.00 0.00 0.00 0.00 0.00 0.00 0.00 0.00 0.00 0.00 0.00 0.00 0.00 0.00 0.00 0.00 0.00 0.00 0.00 0.00 0.00 0.00 0.00 0.00 0.00 0.00 0.00 0.00 0.00 0.00 0.00 0.00 0.00 0.00 0.00 0.00 0.00
0.00 0.00 0.00 0.00 0.00 0.00 0.00 0.00 0.00 0.00 0.00 0.01 0.00 0.00 0.00 0.00 0.00 0.00 0.00 0.00 0.00 0.00 0.00 0.00 0.00 0.00 0.00 0.00 0.00 0.00 0.00 0.00 0.00 0.00 0.00 0.00 0.00 0.00 0.00 0.00 0.00 0.00 0.00 0.00
0.08 0.00 0.00 0.00 0.00 0.00 0.00 0.00 0.00 0.00 0.00 0.03 0.00 0.00 0.00 0.00 0.00 0.00 0.00 0.00 0.00 0.00 0.00 0.00 0.00 0.00 0.00 0.00 0.00 0.00 0.00 0.00 0.00 0.00 0.00 0.00 0.00 0.00 0.00 0.00 0.00 0.00 0.00 0.00
0.00 0.00 0.00 0.00 0.00 0.00 0.00 0.00 0.00 0.00 0.01 0.34 0.00 0.00 0.00 0.00 0.00 0.00 0.00 0.00 0.00 0.00 0.00 0.00 0.00 0.00 0.00 0.00 0.00 0.00 0.00 0.00 0.00 0.00 0.00 0.00 0.00 0.00 0.00 0.00 0.00 0.00 0.00 0.00
0.00 0.00 0.00 0.00 0.00 0.00 0.00 0.01 0.89 1.07 1.39 0.25 0.00 0.01 0.00 0.00 0.00 0.00 0.00 0.00 0.00 0.00 0.00 0.00 0.00 0.00 0.00 0.00 0.00 0.00 0.00 0.00 0.00 0.00 0.00 0.00 0.00 0.00 0.00 0.00 0.00 0.00 0.00 0.00
0.39 0.82 0.00 0.00 0.00 0.01 0.00 0.00 0.31 0.20 0.21 0.03 0.00 0.02 0.00 0.00 0.00 0.00 0.00 0.00 0.00 0.00 0.00 0.00 0.00 0.00 0.00 0.00 0.00 0.00 0.00 0.00 0.00 0.00 0.00 0.00 0.00 0.00 0.00 0.00 0.00 0.00 0.00 0.00
0.23 0.06 0.00 0.00 0.00 0.00 0.03 0.20 0.00 0.12 0.39 0.24 0.13 0.00 0.00 0.00 0.00 0.00 0.00 0.00 0.00 0.00 0.00 0.00 0.00 0.00 0.00 0.00 0.00 0.00 0.00 0.00 0.00 0.00 0.00 0.00 0.00 0.00 0.00 0.00 0.00 0.00 0.00 0.00
0.00 0.17 0.00 0.00 0.00 0.00 0.00 0.00 0.56 0.56 1.10 0.47 0.03 0.00 0.00 0.00 0.00 0.00 0.00 0.00 0.00 0.00 0.00 0.00 0.00 0.00 0.00 0.00 0.00 0.00 0.00 0.00 0.00 0.00 0.00 0.00 0.00 0.00 0.00 0.00 0.00 0.00 0.00 0.00
0.00 0.01 0.12 0.00 0.00 0.00 0.00 0.00 0.01 0.21 0.61 0.40 0.25 0.03 0.00 0.00 0.00 0.00 0.00 0.00 0.00 0.00 0.00 0.00 0.00 0.00 0.00 0.00 0.00 0.00 0.00 0.00 0.00 0.00 0.00 0.00 0.00 0.00 0.00 0.00 0.00 0.00 0.00 0.00
0.00 0.00 0.38 0.13 0.00 0.00 0.00 0.00 0.00 0.29 0.13 0.22 0.37 0.19 0.00 0.00 0.00 0.00 0.00 0.00 0.00 0.00 0.00 0.00 0.00 0.00 0.00 0.00 0.00 0.00 0.00 0.00 0.00 0.00 0.00 0.00 0.00 0.00 0.00 0.00 0.00 0.00 0.00 0.00
0.00 0.41 1.24 0.84 0.36 0.01 0.00 0.00 0.00 0.00 0.05 0.09 0.56 0.06 0.00 0.00 0.00 0.00 0.00 0.00 0.00 0.00 0.00 0.00 0.00 0.00 0.00 0.00 0.00 0.00 0.00 0.00 0.00 0.00 0.00 0.00 0.00 0.00 0.00 0.00 0.00 0.00 0.00 0.00
nan 0.04 0.10 0.10 0.08 0.00 0.02 0.00 0.00 0.00 1.09 0.07 0.04 0.00 0.00 0.00 0.00 0.00 0.00 0.00 0.00 0.00 0.00 0.00 0.00 0.00 0.00 0.00 0.00 0.00 0.00 0.00 0.00 0.00 0.00 0.00 0.00 0.00 0.00 0.00 0.00 0.00 0.00 0.00
0.00 0.62 0.01 0.01 0.00 0.00 0.00 0.01 0.00 0.06 0.02 0.13 0.00 0.00 0.00 0.00 0.00 0.00 0.00 0.00 0.00 0.00 0.00 0.00 0.00 0.00 0.00 0.00 0.00 0.00 0.00 0.00 0.00 0.00 0.00 0.00 0.00 0.00 0.00 0.00 0.00 0.00 0.00 0.00
0.01 0.71 0.04 0.48 0.02 0.01 0.04 0.00 0.00 0.00 0.00 0.00 0.00 0.00 0.00 0.00 0.00 0.00 0.00 0.00 0.00 0.00 0.00 0.00 0.00 0.00 0.00 0.00 0.00 0.00 0.00 0.00 0.00 0.00 0.00 0.00 0.00 0.01 0.01 0.00 0.01 0.01 0.01 0.01
0.04 0.48 2.42 3.45 0.04 0.08 2.23 0.09 0.00 0.00 0.00 0.00 0.00 0.00 0.00 0.00 0.00 0.00 0.01 0.02 0.03 0.01 0.00 0.00 0.00 0.01 0.00 0.00 0.00 0.00 0.00 0.00 0.00 0.01 0.01 0.01 0.01 0.02 0.02 0.02 0.02 0.02 0.01 0.01
0.06 0.25 0.87 3.57 1.78 6.47 0.36 0.00 0.00 0.00 0.00 0.00 0.00 0.00 0.00 0.00 0.00 0.00 0.00 0.00 0.00 0.00 0.00 0.00 0.00 0.00 0.00 0.00 0.00 0.00 0.01 0.01 0.01 0.01 0.02 0.03 0.03 0.04 0.03 0.03 0.03 0.02 0.02 0.02
0.00 0.05 2.94 5.00 2.99 0.09 0.00 0.00 0.00 0.00 0.00 0.00 0.00 0.00 0.00 0.00 0.00 0.00 0.00 0.00 0.00 0.00 0.00 0.00 0.00 0.00 0.00 0.02 0.03 0.03 0.04 0.03 0.02 0.02 0.02 0.02 0.03 0.06 0.04 0.07 0.03 0.03 0.04 0.04
0.00 0.00 0.21 4.91 4.63 3.16 0.00 0.00 0.00 0.00 0.12 0.00 0.00 0.00 0.00 0.00 0.00 0.00 0.00 0.00 0.00 0.00 0.01 0.03 0.05 0.06 0.05 0.03 0.02 0.03 0.04 0.02 0.02 0.02 0.02 0.02 0.03 0.09 0.06 0.04 0.08 0.09 0.10 0.12
1.78 2.64 4.93 4.17 3.81 1.24 0.02 0.01 0.00 0.56 0.03 0.05 0.00 0.00 0.00 0.00 0.00 0.00 0.00 0.00 0.00 0.01 0.04 0.07 0.12 0.16 0.11 0.07 0.06 0.04 0.02 0.02 0.03 0.04 0.05 0.07 0.06 0.16 0.06 0.11 0.11 0.22 0.31 0.20
0.74 2.20 4.27 2.87 3.78 4.13 0.01 0.00 0.01 0.02 0.02 0.02 0.01 0.00 0.00 0.00 0.00 0.00 0.00 0.00 0.02 0.03 0.05 0.06 0.05 0.00 0.00 0.02 0.03 0.04 0.03 0.04 0.10 0.13 0.15 0.19 0.29 0.23 0.20 0.54 0.37 0.59 0.50 0.55
1.11 0.22 1.05 0.17 0.74 0.01 0.00 0.02 0.00 0.01 0.02 0.02 0.00 0.00 0.00 0.00 0.00 0.00 0.00 0.00 0.01 0.02 0.04 0.02 0.05 0.07 0.02 0.11 0.07 0.12 0.08 0.11 0.20 0.43 0.66 0.64 0.56 0.56 0.57 0.84 0.60 0.88 0.71 0.88
0.16 0.19 0.84 0.73 0.35 0.06 0.02 0.00 0.00 0.00 0.00 0.00 0.00 0.00 0.00 0.00 0.00 0.00 0.00 0.00 0.01 0.05 0.08 0.11 0.16 0.21 0.21 0.17 0.21 0.24 0.21 0.24 0.94 0.93 0.49 0.39 0.54 0.45 0.54 0.72 0.80 1.18 1.01 0.83
0.36 0.41 0.61 0.54 0.23 0.22 0.13 0.02 0.00 0.00 0.00 0.00 0.00 0.00 0.00 0.00 0.00 0.00 0.03 0.06 0.04 0.07 0.09 0.14 0.22 0.21 0.21 0.17 0.19 0.32 0.28 0.34 0.54 0.63 0.34 0.46 0.67 0.77 0.47 0.41 0.75 0.74 0.46 1.03
0.33 0.35 0.53 0.60 0.28 0.19 0.05 0.17 0.05 0.04 0.02 0.01 0.02 0.04 0.06 0.04 0.02 0.03 0.06 0.05 0.06 0.12 0.14 0.18 0.21 0.20 0.22 0.28 0.32 0.46 0.65 0.60 0.65 0.41 0.58 0.56 0.57 0.51 0.48 0.56 0.60 nan nan nan
SL_Ratio
nan nan nan nan nan nan nan nan nan nan nan nan nan nan nan nan nan nan nan nan nan nan nan nan nan nan nan nan nan nan nan nan nan nan nan nan nan nan nan nan nan nan nan nan
nan nan nan nan nan nan nan nan nan nan nan nan nan nan nan nan nan nan nan nan nan nan nan nan nan nan nan nan nan nan nan nan nan nan nan nan nan nan nan nan nan nan nan nan
nan nan nan nan nan nan nan nan nan nan nan nan nan nan nan nan nan nan nan nan nan nan nan nan nan nan nan nan nan nan nan nan nan nan nan nan nan nan nan nan nan nan nan nan
nan nan nan nan nan nan nan nan nan nan 4.6 3.8 nan 6.7 nan nan nan nan nan nan nan nan nan nan nan nan nan nan nan nan nan nan nan nan nan nan nan nan nan nan nan nan nan nan
2.5 nan nan nan nan nan nan nan nan nan nan 4.3 nan 5.6 nan nan nan nan nan nan nan nan nan nan nan nan nan nan nan nan nan nan nan nan nan nan nan nan nan nan nan nan nan nan
nan nan nan nan nan nan nan nan nan 10.0 2.9 4.8 nan nan nan nan nan nan nan nan nan nan nan nan nan nan nan nan nan nan nan nan nan nan nan nan nan nan nan nan nan nan nan nan
nan nan nan nan nan nan nan 3.2 5.9 6.0 6.5 5.9 nan 2.5 nan nan nan nan nan nan nan nan nan nan nan nan nan nan nan nan nan nan nan nan nan nan nan nan nan nan nan nan nan nan
3.4 5.6 nan nan 3.3 2.6 nan 3.3 4.9 7.2 5.2 3.1 0.0 4.0 nan nan nan nan nan nan nan nan nan nan nan nan nan nan nan nan nan nan nan nan nan nan nan nan nan nan nan nan nan nan
4.1 4.6 nan nan nan nan 3.2 2.8 nan 5.5 4.9 4.8 5.5 5.0 nan nan nan nan nan nan nan nan nan nan nan nan nan nan nan nan nan nan nan nan nan nan nan nan nan nan nan nan nan nan
nan 5.2 nan nan nan nan nan nan 5.1 4.6 6.8 7.3 7.3 nan nan nan nan nan nan nan nan nan nan nan nan nan nan nan nan nan nan nan nan nan nan nan nan nan nan nan nan nan nan nan
nan 5.1 3.3 nan nan nan nan 3.3 2.9 4.1 4.6 5.7 5.4 6.3 nan nan nan nan nan nan nan nan nan nan nan nan nan nan nan nan nan nan nan nan nan nan nan nan nan nan nan nan nan nan
nan 3.3 4.3 3.2 nan nan nan nan 0.0 5.2 6.2 5.3 5.5 6.3 nan nan nan nan nan nan nan nan nan nan nan nan nan nan nan nan nan nan nan nan nan nan nan nan nan nan nan nan nan nan
nan 3.7 5.6 5.7 6.4 2.6 nan nan nan nan 4.0 5.6 4.9 4.5 nan nan nan nan nan nan nan nan nan nan nan nan nan nan nan nan nan nan nan nan nan nan nan nan nan nan nan nan nan nan
nan 4.6 4.5 3.9 4.3 nan 4.2 nan nan 4.0 5.1 3.3 2.9 nan nan nan nan nan nan nan nan nan nan nan nan nan nan nan nan nan nan nan nan nan nan nan nan nan nan nan nan nan nan nan
nan 4.3 4.9 5.5 5.0 0.0 nan 5.8 nan 4.2 2.7 4.9 3.3 nan nan nan nan nan nan nan nan nan nan nan nan nan nan nan nan nan nan nan nan nan nan nan nan nan nan nan nan nan nan nan
2.4 4.4 4.9 5.4 5.4 5.4 4.7 5.0 nan nan nan nan nan nan nan nan nan nan nan nan 0.0 nan nan nan nan nan nan nan nan nan nan 0.0 0.0 nan nan nan 6.0 3.0 2.9 2.7 2.4 2.6 2.5 2.7
3.0 4.4 4.0 4.8 4.1 4.9 6.3 5.8 nan nan nan nan 6.0 nan nan nan nan nan 4.0 5.4 6.2 6.0 10.0 7.5 7.9 7.2 5.0 3.3 10.0 nan nan nan 4.0 2.4 2.6 2.8 2.6 2.9 2.6 2.6 2.7 2.9 2.7 2.8
2.8 3.4 3.1 4.7 4.2 7.2 5.5 nan nan nan nan nan nan nan nan nan 7.1 nan nan nan nan nan nan nan nan nan nan nan 10.0 9.0 9.6 8.9 7.6 2.8 2.9 3.2 3.1 3.5 3.4 3.2 3.1 3.0 2.9 3.0
nan 4.0 5.1 6.2 5.8 5.2 nan nan nan 3.3 nan nan nan nan nan 6.0 nan nan nan nan nan nan nan nan nan 10.0 11.3 12.7 11.5 9.5 8.6 7.1 4.3 3.3 3.3 3.4 3.7 4.0 3.7 3.6 3.5 3.3 3.5 3.6
nan 0.0 4.4 5.2 5.6 7.5 5.0 nan nan nan 3.8 nan nan nan nan nan 6.4 nan nan nan nan nan 11.3 12.4 12.7 11.2 11.5 12.8 11.4 8.3 8.8 4.0 3.7 3.7 3.6 3.7 3.9 4.0 3.6 3.5 3.8 4.3 4.2 4.8
4.0 4.0 5.0 5.0 5.3 4.9 2.8 2.5 nan 6.1 3.5 2.9 nan nan nan nan nan 10.7 nan nan 8.3 11.8 12.5 12.6 12.0 9.3 10.8 12.1 9.8 9.1 4.7 4.2 4.0 4.7 5.0 5.2 4.8 4.0 3.6 4.0 4.8 4.7 4.5 5.1
5.6 5.1 5.2 5.3 5.7 6.8 2.9 4.5 4.1 3.1 3.2 3.0 2.8 nan nan nan nan nan nan 5.0 12.3 13.2 12.3 10.7 9.7 14.4 nan 3.7 3.8 4.5 4.6 4.7 5.4 5.7 5.9 5.8 4.4 4.1 3.9 3.8 4.6 4.3 4.4 4.5
5.7 4.8 4.1 4.3 4.0 2.6 2.5 3.1 5.0 2.6 3.0 4.1 5.0 5.0 nan nan nan nan nan 10.0 13.2 13.6 13.6 11.8 4.9 6.7 12.8 6.1 4.6 5.3 5.9 6.7 7.4 6.3 5.9 5.7 5.3 4.5 3.9 3.8 4.7 4.9 4.4 5.2
5.7 5.7 4.4 5.2 5.0 4.4 4.0 4.0 6.7 7.1 6.3 0.0 nan 10.0 nan 6.7 nan nan 5.0 5.0 14.3 7.3 6.5 6.4 6.6 7.7 7.7 7.4 7.8 7.0 8.0 8.4 6.2 6.1 6.7 7.0 6.5 5.8 5.6 4.8 4.8 4.8 5.2 5.4
7.2 7.2 7.4 6.2 8.1 7.6 5.6 4.6 7.5 10.0 nan nan nan 5.0 7.5 10.0 10.0 6.7 4.5 5.1 5.0 6.6 7.2 7.1 8.2 8.4 8.6 8.5 8.8 8.5 8.4 7.9 7.1 7.4 9.8 8.0 6.7 6.3 8.5 8.4 6.1 6.8 6.5 5.8
13.8 14.1 8.5 6.4 11.0 11.8 8.1 7.8 10.3 12.1 11.2 5.0 5.9 9.4 8.8 7.2 5.1 5.3 5.9 5.7 6.4 7.9 9.0 9.8 10.2 10.7 11.9 11.6 11.2 10.2 8.6 7.5 7.9 9.4 9.1 7.9 8.2 8.3 8.5 9.0 8.7 nan nan nan